カタログに戻る

SL-8 R/B

運用中LEO
NORAD 5847·ROCKET BODY·🇷🇺 Russia

打ち上げ Feb 25, 1972 から Plesetsk Cosmodrome

Loading…

次のパス (今後24時間)

TLE

最新Source: Space-Track

元期: Sep 14, 2026, 05:49 UTC

1 05847U 72009B   26257.24282721  .00000051  00000-0  70905-4 0  9993
2 05847  74.0498 180.8517 0029186  76.8594  84.8309 13.79467166745269

AllMySatでSL-8 R/Bをリアルタイム追跡

Download on the App Store